Startpagina
METAR-TAF:

METAR-TAF

Vliegvelden :

Vlieland Heliport

Vlieland, Nederland

breedte: 53-15N, lengte: 004-55E, hoogte: 11 m

Actueel weer

Dit bericht is 33 minuten geleden gemaakt, om 07:55 UTC
Wind 14 kt uit het zuiden
Temperatuur 12°C
Vochtigheid 82%
Druk 1020 hPa
Zicht 10 km of meer
Weinig wolken op 8700 ft
Geheel bewolkt op 22000 ft

METAR: EHVL 180755Z AUTO 19014KT 9999 FEW087 OVC220 12/09 Q1020 BLU

Tijdstip: 10:28 (08:28 UTC)


TAF: ontbreekt

Waarnemingen en weersverwachtingen van meer dan 4000 vliegvelden (METAR en TAF).

De beschikbare stations zijn de gele en rode punten op de kaart.

Ga met uw muis naar het station om de naam te zien.

Klik dan om waarnemingen en weersverwachtingen te zien.

kaart wijzigen: klik op de groene knoppen met een zwart kruis om in te zoomen, op de groene knop met een streepje om uit te zoomen of op de groene pijlen voor aangrenzende kaarten.


METAR-TAF: